LROP Weather Reports


Display with metric or nautical units.
time (UTC)temp
F
wind
direction
speed
MPH
gust
MPH
rain 1hr
in
rain 24hr
in
rain mn
in
humidity
%
barometer
mb
20260906204803 68 70 10.0 0.0 0.00 0.00 0.00 53 1024.0
20260906203302 68 70 10.0 0.0 0.00 0.00 0.00 53 1024.0
20260906201802 70 60 11.0 0.0 0.00 0.00 0.00 50 1024.0
20260906200302 70 60 11.0 0.0 0.00 0.00 0.00 50 1024.0
20260906194802 70 50 13.0 0.0 0.00 0.00 0.00 46 1023.0
20260906193302 70 50 13.0 0.0 0.00 0.00 0.00 46 1023.0
20260906191802 72 50 11.0 0.0 0.00 0.00 0.00 41 1023.0
20260906190303 72 50 11.0 0.0 0.00 0.00 0.00 41 1023.0
20260906184819 73 30 8.0 0.0 0.00 0.00 0.00 38 1022.0
20260906183302 73 30 8.0 0.0 0.00 0.00 0.00 38 1022.0
20260906181802 75 40 8.0 0.0 0.00 0.00 0.00 39 1021.0
20260906180302 75 40 8.0 0.0 0.00 0.00 0.00 39 1021.0
20260906174812 75 50 8.0 0.0 0.00 0.00 0.00 39 1021.0
20260906173303 75 50 8.0 0.0 0.00 0.00 0.00 39 1021.0
20260906171802 77 60 9.0 0.0 0.00 0.00 0.00 34 1020.0
20260906170311 77 60 9.0 0.0 0.00 0.00 0.00 34 1020.0
20260906164816 79 60 11.0 0.0 0.00 0.00 0.00 32 1019.0
20260906163302 79 60 11.0 0.0 0.00 0.00 0.00 32 1019.0
20260906161803 82 60 11.0 0.0 0.00 0.00 0.00 26 1019.0
20260906160302 82 60 11.0 0.0 0.00 0.00 0.00 26 1019.0
20260906153327 82 300 13.0 0.0 0.00 0.00 0.00 25 1018.0
20260906151802 84 280 14.0 0.0 0.00 0.00 0.00 23 1018.0
20260906150303 84 280 14.0 0.0 0.00 0.00 0.00 23 1018.0
20260906144803 84 250 14.0 0.0 0.00 0.00 0.00 25 1018.0
20260906143302 84 250 14.0 0.0 0.00 0.00 0.00 25 1018.0
20260906141833 86 260 11.0 0.0 0.00 0.00 0.00 24 1018.0
20260906140302 86 260 11.0 0.0 0.00 0.00 0.00 24 1018.0
20260906134802 84 260 15.0 0.0 0.00 0.00 0.00 29 1018.0
20260906133302 84 260 15.0 0.0 0.00 0.00 0.00 29 1018.0
20260906131802 84 260 15.0 0.0 0.00 0.00 0.00 25 1018.0
20260906130302 84 260 15.0 0.0 0.00 0.00 0.00 25 1018.0
20260906123302 81 260 8.0 0.0 0.00 0.00 0.00 28 1018.0
20260906121802 84 260 7.0 0.0 0.00 0.00 0.00 27 1019.0
20260906120301 84 260 7.0 0.0 0.00 0.00 0.00 27 1019.0
20260906114802 84 300 14.0 0.0 0.00 0.00 0.00 27 1019.0
20260906113302 84 300 14.0 0.0 0.00 0.00 0.00 27 1019.0
20260906111803 82 290 14.0 0.0 0.00 0.00 0.00 28 1020.0
20260906110303 82 290 14.0 0.0 0.00 0.00 0.00 28 1020.0
20260906104802 82 250 9.0 0.0 0.00 0.00 0.00 30 1020.0
20260906103302 82 250 9.0 0.0 0.00 0.00 0.00 30 1020.0
20260906101802 81 250 9.0 0.0 0.00 0.00 0.00 34 1020.0
20260906100302 81 250 9.0 0.0 0.00 0.00 0.00 34 1020.0
20260906094802 79 190 6.0 0.0 0.00 0.00 0.00 39 1020.0
20260906093302 79 190 6.0 0.0 0.00 0.00 0.00 39 1020.0
20260906091804 77 3.0 0.0 0.00 0.00 0.00 39 1020.0
20260906090304 77 3.0 0.0 0.00 0.00 0.00 39 1020.0
20260906084802 77 2.0 0.0 0.00 0.00 0.00 36 1020.0
20260906083302 77 2.0 0.0 0.00 0.00 0.00 36 1020.0
20260906081802 75 2.0 0.0 0.00 0.00 0.00 41 1021.0
20260906080302 75 2.0 0.0 0.00 0.00 0.00 41 1021.0
20260906074801 73 50 5.0 0.0 0.00 0.00 0.00 44 1021.0
20260906073302 73 50 5.0 0.0 0.00 0.00 0.00 44 1021.0
20260906071803 72 80 6.0 0.0 0.00 0.00 0.00 50 1020.0
20260906070302 72 80 6.0 0.0 0.00 0.00 0.00 50 1020.0
20260906064801 72 70 8.0 0.0 0.00 0.00 0.00 50 1020.0
20260906063302 72 70 8.0 0.0 0.00 0.00 0.00 50 1020.0
20260906061915 70 90 7.0 0.0 0.00 0.00 0.00 53 1020.0
20260906060302 70 90 7.0 0.0 0.00 0.00 0.00 53 1020.0
20260906054827 68 110 8.0 0.0 0.00 0.00 0.00 56 1020.0
20260906053302 68 110 8.0 0.0 0.00 0.00 0.00 56 1020.0
20260906051802 66 120 6.0 0.0 0.00 0.00 0.00 64 1019.0
20260906050415 66 120 6.0 0.0 0.00 0.00 0.00 64 1019.0
20260906044915 66 100 7.0 0.0 0.00 0.00 0.00 60 1019.0
20260906043403 64 80 9.0 0.0 0.00 0.00 0.00 64 1018.0
20260906041916 64 80 9.0 0.0 0.00 0.00 0.00 64 1018.0
20260906040322 64 80 9.0 0.0 0.00 0.00 0.00 64 1018.0
20260906034815 64 90 13.0 0.0 0.00 0.00 0.00 60 1018.0
20260906033416 66 70 14.0 0.0 0.00 0.00 0.00 60 1018.0
20260906031915 66 70 14.0 0.0 0.00 0.00 0.00 60 1018.0
20260906030415 66 90 13.0 0.0 0.00 0.00 0.00 60 1017.0
20260906024829 66 90 13.0 0.0 0.00 0.00 0.00 60 1017.0
20260906023302 66 90 13.0 0.0 0.00 0.00 0.00 60 1017.0
20260906021809 68 80 13.0 0.0 0.00 0.00 0.00 56 1017.0
20260906020303 68 80 13.0 0.0 0.00 0.00 0.00 56 1017.0
20260906014803 68 70 9.0 0.0 0.00 0.00 0.00 64 1017.0
20260906013415 70 70 11.0 0.0 0.00 0.00 0.00 60 1016.0
20260906011802 70 70 11.0 0.0 0.00 0.00 0.00 60 1016.0
20260906010301 70 70 11.0 0.0 0.00 0.00 0.00 60 1016.0
20260906004916 70 80 13.0 0.0 0.00 0.00 0.00 60 1015.0
20260906003416 70 80 11.0 0.0 0.00 0.00 0.00 60 1015.0
20260906001915 70 80 11.0 0.0 0.00 0.00 0.00 60 1015.0
20260906000404 72 90 10.0 0.0 0.00 0.00 0.00 57 1015.0
20260905234812 72 90 10.0 0.0 0.00 0.00 0.00 57 1015.0
20260905233302 72 90 10.0 0.0 0.00 0.00 0.00 57 1015.0
20260905231915 72 80 10.0 0.0 0.00 0.00 0.00 57 1015.0
20260905230334 72 80 10.0 0.0 0.00 0.00 0.00 57 1015.0
20260905224915 72 40 10.0 0.0 0.00 0.00 0.00 61 1015.0
20260905223316 72 40 10.0 0.0 0.00 0.00 0.00 61 1015.0
20260905221900 73 2.0 0.0 0.00 0.00 0.00 53 1015.0
20260905220415 72 330 5.0 0.0 0.00 0.00 0.00 57 1014.0
20260905214915 72 330 5.0 0.0 0.00 0.00 0.00 57 1014.0
20260905213302 72 330 5.0 0.0 0.00 0.00 0.00 57 1014.0
20260905211802 72 240 5.0 0.0 0.00 0.00 0.00 57 1014.0
20260905210302 72 240 5.0 0.0 0.00 0.00 0.00 57 1014.0